[[{"header":{"parameterUnit":"m.s-1","parameterCategory":1,"la1":30.2991,"la2":30.254,"lo1":-89.0895,"lo2":-89.0444,"dy":0.0017,"dx":0.0017,"nx":28,"ny":28,"refTime":"2025-07-11T21:00:00:Z","depth":0,"parameterNumber":2,"parameterNumberName":"U-component_of_WINDS"},"data":[0,0,0,0,0,0,0,0,0,0,0,0,0,0,0,0,0,0,0,0,0,0,0,0,0,0,0,0,0,0,0,0,0,0,0,0,0,0,0,0,0,0,0,0,0,0,0,0,0,0,0,0,0,0,0,0,0,0,1.6063,1.6065,0,1.6233,1.6235,1.6237,1.6273,1.6272,1.627,1.6269,1.6449,1.6455,1.6461,0,0,0,0,0,0,0,0,0,0,0,0,0,1.5775,1.578,1.6063,1.6065,1.6067,1.6232,1.6235,1.6237,1.6273,1.6272,1.627,1.6269,1.6447,1.6454,1.6461,0,0,0,0,0,0,0,0,0,0,0,0,0,1.5918,1.5782,1.6062,1.6105,1.611,1.6232,1.6235,1.6238,1.6274,1.6272,1.627,1.6268,1.6445,1.6454,1.6462,1.6556,0,0,1.649,1.6494,0,0,0,0,0,0,0,0,1.591,1.5929,1.6096,1.6102,1.6108,1.623,1.6199,1.6344,1.6274,1.6212,1.6269,1.6267,1.6378,1.6392,1.6429,1.6564,1.6572,1.6491,1.6496,1.65,1.6502,0,0,0,0,0,0,0,1.59,1.5922,1.613,1.6099,1.6106,1.6117,1.6135,1.6227,1.6304,1.6217,1.622,1.6239,1.6381,1.642,1.6433,1.6574,1.649,1.6498,1.6504,1.6507,1.6796,1.6798,0,0,0,0,0,0,1.5882,1.5913,1.6125,1.6135,1.6002,1.6124,1.6144,1.6193,1.6303,1.6318,1.6241,1.624,1.6406,1.6423,1.644,1.6556,1.65,1.6508,1.6513,1.6793,1.6796,1.6799,0,0,0,0,0,0,1.5876,1.5901,1.6118,1.6025,1.6054,1.6131,1.6185,1.6197,1.6236,1.6321,1.6335,1.6266,1.6405,1.6427,1.6526,1.6563,1.6512,1.652,1.6791,1.6794,1.6797,1.6789,0,0,0,0,0,0,1.5867,1.5898,1.5933,1.6026,1.6058,1.62,1.6187,1.6202,1.625,1.6252,1.6348,1.6362,1.6405,1.6513,1.6535,1.6574,1.6527,1.6788,1.6792,1.6796,1.6787,1.6792,1.6796,0,0,0,0,0,1.5857,1.5925,1.5934,1.596,1.6103,1.6202,1.6221,1.6267,1.6253,1.629,1.6344,1.6359,1.6555,1.6522,1.6548,1.659,1.6786,1.6791,1.6796,1.6784,1.6791,1.6796,0,0,0,0,0,0,1.5837,1.5938,1.5949,1.6049,1.6116,1.6208,1.6255,1.6272,1.6346,1.6344,1.64,1.6422,1.6517,1.6564,1.6526,1.6687,1.667,1.668,1.6652,1.6659,1.6664,1.6651,1.6535,0,0,0,0,0,1.5843,1.5913,1.5999,1.6079,1.6111,1.6177,1.6222,1.6251,1.6324,1.6353,1.6415,1.6487,1.6564,1.6615,1.6691,1.6794,1.6816,1.6835,1.684,1.6844,1.6852,1.6911,1.6921,1.6815,1.6815,1.6815,0,0,1.5859,1.5923,1.5964,1.6076,1.6132,1.6204,1.6201,1.6278,1.6333,1.6366,1.6462,1.651,1.6594,1.6695,1.6743,1.6737,1.6886,1.6851,1.6853,1.686,1.6917,1.6927,1.6936,1.6819,1.6818,1.6818,0,0,1.5924,1.5979,1.6051,1.6106,1.619,1.6233,1.625,1.634,1.6372,1.6469,1.6495,1.6563,1.6695,1.6754,1.6801,1.6888,1.6905,1.6912,1.6938,1.6994,1.7002,1.701,1.7041,1.7051,1.692,1.692,1.692,0,1.5933,1.6041,1.6087,1.6162,1.6211,1.6242,1.6317,1.6369,1.6474,1.6508,1.65,1.6666,1.6725,1.684,1.6861,1.6899,1.6921,1.6901,1.6997,1.7005,1.7013,1.7043,1.7055,1.692,1.692,1.692,1.692,0,1.6048,1.6123,1.6172,1.627,1.6325,1.64,1.6458,1.6509,1.6534,1.6578,1.6678,1.6749,1.684,1.687,1.6896,1.699,1.6983,1.6985,1.697,1.7022,1.7052,1.7064,1.692,1.692,1.692,1.692,0,0,1.6105,1.6227,1.6244,1.6289,1.6383,1.6443,1.652,1.6607,1.6649,1.6721,1.6788,1.6899,1.6901,1.6954,1.6987,1.7037,1.7101,1.7033,1.7035,1.7043,1.7209,1.7207,1.7219,1.7113,1.7115,1.7117,1.7202,0,1.6181,1.6317,1.636,1.6475,1.6545,1.6576,1.6643,1.6709,1.6753,1.6821,1.6871,1.6948,1.6945,1.6977,1.7027,1.7082,1.7135,1.7077,1.7177,1.718,1.7154,1.7235,1.7233,1.731,1.7214,1.7216,1.7217,0,1.6288,1.6359,1.6479,1.6565,1.6596,1.6655,1.6739,1.6803,1.6879,1.6908,1.6967,1.6996,1.7079,1.7058,1.7175,1.7134,1.7178,1.7211,1.7215,1.7226,1.7201,1.7248,1.7335,1.7346,1.7236,1.7235,1.7233,0,1.6317,1.6443,1.6532,1.6569,1.6671,1.6712,1.6757,1.6831,1.688,1.6954,1.6987,1.7071,1.7116,1.7181,1.7232,1.7212,1.7344,1.7328,1.7371,1.737,1.7397,1.7395,1.7492,1.7426,1.7425,1.7425,1.7425,0,1.6398,1.647,1.6546,1.66,1.6683,1.6733,1.6814,1.6861,1.6927,1.6992,1.7024,1.7085,1.7149,1.7219,1.726,1.735,1.7371,1.7397,1.7407,1.7394,1.7391,1.7424,1.742,1.7428,1.7428,1.7427,1.7426,0,1.6444,1.6497,1.6595,1.6683,1.6707,1.6764,1.6841,1.6895,1.6941,1.7023,1.7045,1.7117,1.7201,1.7258,1.7367,1.7394,1.7492,1.7501,1.7465,1.747,1.751,1.7505,1.7632,1.7651,1.7571,1.7572,1.7573,0,1.6491,1.6547,1.6641,1.6686,1.673,1.6803,1.6853,1.6905,1.6957,1.7048,1.7092,1.7177,1.7248,1.7381,1.7444,1.7528,1.7539,1.7578,1.7552,1.7537,1.754,1.7535,1.7542,1.7582,1.7582,1.7583,1.7583,0,1.657,1.6593,1.6664,1.6743,1.6802,1.6868,1.6934,1.697,1.7034,1.7091,1.7175,1.723,1.734,1.7425,1.7514,1.7562,1.7584,1.7591,1.7605,1.7592,1.7569,1.7582,1.7476,1.7588,1.7587,1.7587,1.7587,1.7586,1.6619,1.667,1.6743,1.6821,1.6876,1.6937,1.6992,1.7044,1.7115,1.7207,1.7234,1.7323,1.7399,1.752,1.7569,1.7641,1.7638,1.7659,1.7664,1.7668,1.7668,1.7557,1.7657,1.7657,1.7657,1.7657,1.7657,0,1.6699,1.6747,1.6818,1.6908,1.697,1.6983,1.7057,1.7108,1.7184,1.7252,1.7321,1.7419,1.7502,1.7571,1.7657,1.7701,1.7713,1.7722,1.7719,1.773,1.7666,1.7645,1.771,1.771,1.771,1.771,1.771,1.771,1.6747,1.6835,1.6867,1.6983,1.7032,1.7117,1.7158,1.7215,1.727,1.7377,1.7445,1.7489,1.7558,1.7649,1.7726,1.7744,1.7774,1.7781,1.7801,1.774,1.7734,1.7728,1.7709,1.7787,1.7787,1.7859,1.786,1.786]},{"header":{"parameterUnit":"m.s-1","parameterCategory":1,"la1":30.2991,"la2":30.254,"lo1":-89.0895,"lo2":-89.0444,"dy":0.0017,"dx":0.0017,"nx":28,"ny":28,"refTime":"2025-07-11T21:00:00:Z","depth":0,"parameterNumber":3,"parameterNumberName":"V-component_of_WINDS"},"data":[0,0,0,0,0,0,0,0,0,0,0,0,0,0,0,0,0,0,0,0,0,0,0,0,0,0,0,0,0,0,0,0,0,0,0,0,0,0,0,0,0,0,0,0,0,0,0,0,0,0,0,0,0,0,0,0,0,0,2.3404,2.3404,0,2.3402,2.3402,2.3402,2.3421,2.3422,2.3422,2.3423,2.3417,2.3417,2.3416,0,0,0,0,0,0,0,0,0,0,0,0,0,2.3422,2.3421,2.3404,2.3404,2.3404,2.3402,2.3402,2.3402,2.3421,2.3422,2.3422,2.3423,2.3418,2.3417,2.3416,0,0,0,0,0,0,0,0,0,0,0,0,0,2.3416,2.3421,2.3404,2.3414,2.3414,2.3402,2.3402,2.3402,2.3421,2.3422,2.3423,2.3423,2.3418,2.3417,2.3416,2.3393,0,0,2.3413,2.3412,0,0,0,0,0,0,0,0,2.3416,2.3415,2.3412,2.3413,2.3414,2.3413,2.3406,2.3399,2.3421,2.3418,2.3423,2.3424,2.3415,2.3414,2.3412,2.3393,2.3393,2.3413,2.3412,2.3412,2.3411,0,0,0,0,0,0,0,2.3417,2.3416,2.3403,2.3412,2.3413,2.3417,2.3417,2.3405,2.3412,2.3419,2.342,2.342,2.3415,2.3413,2.3412,2.3392,2.3413,2.3412,2.3411,2.3411,2.3351,2.335,0,0,0,0,0,0,2.3416,2.3416,2.3403,2.3403,2.3417,2.3416,2.3416,2.3412,2.3412,2.3413,2.3419,2.3421,2.3414,2.3413,2.3412,2.3383,2.3412,2.3411,2.341,2.3352,2.3351,2.335,0,0,0,0,0,0,2.3417,2.3415,2.3403,2.341,2.3409,2.3414,2.341,2.3412,2.3409,2.3412,2.3413,2.3415,2.3415,2.3413,2.3397,2.3383,2.341,2.3409,2.3353,2.3352,2.3351,2.3326,0,0,0,0,0,0,2.3417,2.3415,2.3408,2.341,2.3408,2.339,2.3409,2.3411,2.3408,2.341,2.3409,2.341,2.3415,2.3398,2.3396,2.3382,2.3409,2.3355,2.3353,2.3351,2.3328,2.3324,2.332,0,0,0,0,0,2.3418,2.3401,2.3407,2.3406,2.3399,2.3389,2.3388,2.3396,2.3406,2.3398,2.34,2.341,2.3385,2.3397,2.3394,2.338,2.3356,2.3353,2.3351,2.333,2.3325,2.3321,0,0,0,0,0,0,2.3397,2.3401,2.3408,2.3392,2.339,2.3393,2.3382,2.3391,2.3385,2.3387,2.3396,2.3395,2.3377,2.3377,2.339,2.3356,2.3372,2.3369,2.3357,2.3352,2.3348,2.3348,2.3408,0,0,0,0,0,2.339,2.3383,2.3387,2.3372,2.3371,2.3377,2.3373,2.3378,2.3376,2.3375,2.3376,2.3373,2.3364,2.3358,2.3351,2.3329,2.3327,2.3317,2.3313,2.331,2.3307,2.3292,2.3287,2.3343,2.3343,2.3343,0,0,2.3377,2.3378,2.3373,2.3368,2.3367,2.3357,2.3376,2.3366,2.3358,2.3374,2.3358,2.3358,2.3355,2.3335,2.3326,2.3334,2.3291,2.3307,2.3305,2.3303,2.329,2.3284,2.328,2.3341,2.3341,2.3342,0,0,2.3346,2.3348,2.3335,2.3333,2.3332,2.3336,2.3332,2.3333,2.3334,2.3319,2.3329,2.332,2.3306,2.3302,2.3298,2.3264,2.3272,2.3262,2.3241,2.3227,2.3222,2.3218,2.3204,2.3199,2.3259,2.3259,2.3259,0,2.3329,2.3317,2.3326,2.3315,2.3311,2.3325,2.331,2.3308,2.3304,2.33,2.331,2.329,2.3289,2.3267,2.3259,2.3256,2.3251,2.3261,2.3222,2.3218,2.3215,2.3201,2.3196,2.3258,2.3258,2.3258,2.3258,0,2.3295,2.3286,2.3275,2.327,2.3266,2.3252,2.3258,2.3252,2.3258,2.326,2.3242,2.3241,2.3233,2.3228,2.3234,2.3206,2.3211,2.3221,2.3237,2.3208,2.3195,2.319,2.3255,2.3256,2.3256,2.3257,0,0,2.3251,2.3252,2.3247,2.3245,2.3243,2.3236,2.3222,2.3214,2.3207,2.3204,2.3191,2.3177,2.3186,2.3182,2.3187,2.3175,2.3145,2.3186,2.3186,2.3176,2.3111,2.3102,2.3096,2.315,2.3149,2.3149,2.311,0,2.322,2.3199,2.3206,2.3183,2.3173,2.3185,2.3173,2.317,2.3171,2.3161,2.3162,2.3152,2.3166,2.3162,2.3151,2.3151,2.3131,2.3154,2.3136,2.3135,2.3135,2.3089,2.308,2.3044,2.3106,2.3105,2.3104,0,2.3182,2.3176,2.3152,2.315,2.3147,2.3136,2.3128,2.3119,2.3115,2.3116,2.311,2.3117,2.3102,2.3119,2.3096,2.3111,2.3104,2.3102,2.3101,2.3098,2.3117,2.3083,2.3033,2.3027,2.3097,2.3097,2.3098,0,2.315,2.3137,2.312,2.3117,2.3116,2.3107,2.3106,2.3102,2.3096,2.3089,2.3084,2.3075,2.3069,2.3061,2.3064,2.3076,2.3039,2.3057,2.3038,2.3037,2.3028,2.3029,2.2974,2.3027,2.3027,2.3027,2.3027,0,2.3113,2.3098,2.3105,2.3095,2.3076,2.3084,2.3065,2.3065,2.3062,2.305,2.306,2.3048,2.3054,2.3042,2.3045,2.3023,2.3021,2.302,2.3021,2.3018,2.3018,2.3013,2.3015,2.3026,2.3026,2.3026,2.3027,0,2.3074,2.3079,2.3061,2.3061,2.306,2.3047,2.3045,2.3034,2.3036,2.302,2.3017,2.3019,2.3005,2.3008,2.2993,2.2994,2.2967,2.2972,2.2969,2.2969,2.2949,2.295,2.2888,2.2879,2.2939,2.2938,2.2938,0,2.305,2.3038,2.3036,2.3029,2.3027,2.3016,2.301,2.3016,2.3009,2.3002,2.2991,2.2978,2.2968,2.2945,2.2944,2.2932,2.2935,2.2914,2.2933,2.293,2.2931,2.2931,2.2929,2.2909,2.2909,2.2908,2.2908,0,2.3006,2.3008,2.2999,2.2991,2.2983,2.2976,2.297,2.2963,2.2969,2.296,2.2946,2.2938,2.2922,2.2908,2.2896,2.2893,2.29,2.2902,2.2896,2.2893,2.289,2.2889,2.2956,2.2903,2.2903,2.2904,2.2904,2.2904,2.2972,2.2961,2.2957,2.2946,2.2942,2.2936,2.2925,2.2925,2.2914,2.2902,2.2906,2.289,2.2883,2.2868,2.2863,2.2848,2.2856,2.2849,2.2846,2.2844,2.284,2.2894,2.2847,2.2847,2.2847,2.2847,2.2847,0,2.2926,2.2924,2.2914,2.2905,2.2896,2.2905,2.2898,2.2889,2.2875,2.2868,2.2858,2.2841,2.2827,2.2824,2.281,2.2799,2.2801,2.2795,2.2795,2.2793,2.2836,2.2841,2.2793,2.2793,2.2793,2.2793,2.2793,2.2793,2.2901,2.2882,2.2884,2.2862,2.286,2.2844,2.2839,2.2832,2.2827,2.2808,2.2797,2.2795,2.2789,2.2775,2.2761,2.2761,2.2754,2.2745,2.2746,2.2785,2.2791,2.2796,2.28,2.2744,2.2744,2.2704,2.2704,2.2703]}]]